ARKTIKA-M 2

Last updated on Mon Jul 07 2025 00:02:21 GMT+0000 (Coordinated Universal Time)

1 58584U 23198A 25186.31482855 .00000218 00000+0 00000+0 0 9990 2 58584 63.2312 192.3769 6869776 268.7536 18.5292 2.00601575 11355
UTC large
Height (km)
Speed (km/s)
/
Latitude / Longitude
Inclination (degrees)
Orbital Period (minutes)
Azimuth
Elevation
Range (km)
Doppler Factor

Next 0 passes for location: London (51.5072 / 0.1276)

Sorry there are no passes over London.